FW3877 Weather Reports


time (UTC)temp
F
wind
direction
speed
knots
gust
knots
rain 1hr
in
rain 24hr
in
rain mn
in
humidity
%
barometer
mb
20260906145203 65 232 13.0 20.0 0.00 0.02 0.05 90 1007.8
20260906144204 65 231 12.2 20.9 0.02 0.02 0.05 91 1007.8
20260906143704 65 245 12.2 22.6 0.02 0.02 0.05 91 1007.8
20260906143203 66 244 10.4 20.0 0.02 0.02 0.05 91 1007.8
20260906142703 66 237 12.2 20.0 0.02 0.02 0.05 91 1007.6
20260906142204 66 239 11.3 22.6 0.02 0.02 0.05 91 1007.7
20260906141704 66 234 13.0 20.9 0.02 0.02 0.05 92 1007.6
20260906141204 66 250 7.8 18.2 0.02 0.02 0.05 93 1007.5
20260906140704 66 247 11.3 17.4 0.02 0.02 0.05 93 1007.4
20260906135704 66 237 7.8 14.8 0.02 0.02 0.05 93 1007.4
20260906135204 66 241 10.4 21.7 0.02 0.02 0.05 93 1007.4
20260906134704 66 240 7.8 15.6 0.01 0.02 0.04 93 1007.3
20260906134203 66 235 10.4 19.1 0.00 0.01 0.03 93 1007.3
20260906133703 66 220 10.4 17.4 0.00 0.01 0.03 93 1007.1
20260906132704 67 210 11.3 18.2 0.00 0.01 0.03 93 1007.2
20260906132203 66 208 13.9 18.2 0.00 0.01 0.03 93 1007.2
20260906131704 66 200 12.2 19.1 0.00 0.01 0.03 94 1007.2
20260906131204 66 218 11.3 19.1 0.00 0.01 0.03 94 1007.3
20260906130204 65 216 11.3 17.4 0.00 0.01 0.03 94 1007.4
20260906125704 65 226 12.2 20.0 0.00 0.01 0.03 94 1007.2
20260906124704 66 210 11.3 19.1 0.00 0.01 0.03 94 1007.3
20260906124204 66 218 11.3 18.2 0.00 0.01 0.03 95 1007.2
20260906123204 65 224 12.2 22.6 0.01 0.01 0.03 95 1007.2
20260906122704 65 219 13.9 22.6 0.01 0.01 0.03 95 1007.2
20260906122204 65 216 10.4 20.9 0.01 0.01 0.03 95 1007.2
20260906121704 65 213 10.4 18.2 0.01 0.01 0.03 95 1007.0
20260906121203 65 216 12.2 20.0 0.01 0.01 0.03 95 1007.0
20260906120704 65 209 10.4 20.9 0.01 0.01 0.03 95 1007.1
20260906120203 65 206 12.2 18.2 0.01 0.01 0.03 95 1007.2
20260906115703 65 217 6.1 19.1 0.01 0.01 0.03 95 1007.1
20260906114703 64 197 8.7 12.2 0.01 0.01 0.03 94 1007.0
20260906114204 64 190 8.7 13.9 0.01 0.01 0.03 94 1007.1
20260906113704 64 204 8.7 11.3 0.01 0.01 0.03 94 1007.0
20260906113204 64 198 11.3 20.0 0.00 0.00 0.02 94 1007.0
20260906112704 64 200 8.7 18.2 0.00 0.00 0.02 94 1007.0
20260906112203 64 208 11.3 17.4 0.00 0.00 0.02 94 1007.0
20260906111704 64 212 10.4 17.4 0.00 0.00 0.02 94 1007.0
20260906111204 64 213 10.4 17.4 0.00 0.00 0.02 93 1006.9
20260906110704 65 209 9.6 17.4 0.00 0.00 0.02 93 1006.9
20260906110204 65 202 9.6 22.6 0.00 0.00 0.02 93 1007.0
20260906105704 65 197 11.3 22.6 0.00 0.00 0.02 92 1007.0
20260906105204 65 205 12.2 24.3 0.00 0.00 0.02 92 1007.0
20260906104704 65 212 10.4 22.6 0.00 0.00 0.02 92 1007.0
20260906104204 65 206 11.3 21.7 0.00 0.00 0.02 92 1007.0
20260906103204 65 192 11.3 20.0 0.00 0.00 0.02 92 1007.0
20260906102704 65 204 13.9 26.9 0.00 0.00 0.02 91 1007.0
20260906102204 65 191 11.3 20.0 0.00 0.00 0.02 91 1006.8
20260906101704 65 202 11.3 24.3 0.00 0.00 0.02 91 1007.1
20260906101204 65 186 14.8 28.7 0.00 0.00 0.02 91 1007.0
20260906100703 65 196 13.9 20.9 0.00 0.00 0.02 90 1006.8
20260906100204 65 191 12.2 20.9 0.00 0.00 0.02 90 1007.1
20260906095204 66 194 16.5 27.8 0.00 0.00 0.02 89 1007.1
20260906093704 65 200 13.0 28.7 0.00 0.00 0.02 90 1007.4
20260906093204 65 192 13.0 25.2 0.00 0.00 0.02 90 1007.3
20260906092704 65 209 14.8 22.6 0.00 0.00 0.02 91 1007.4
20260906092204 65 205 11.3 22.6 0.00 0.00 0.02 91 1007.5
20260906091704 64 192 12.2 24.3 0.00 0.00 0.02 91 1007.5
20260906091203 64 192 11.3 17.4 0.00 0.00 0.02 91 1007.6
20260906090704 64 193 9.6 18.2 0.00 0.00 0.02 91 1007.6
20260906090204 64 178 13.0 19.1 0.00 0.00 0.02 90 1007.6
20260906085703 65 196 10.4 19.1 0.00 0.00 0.02 89 1007.8
20260906084705 65 175 13.9 25.2 0.00 0.00 0.02 88 1008.0
20260906084205 65 200 10.4 20.9 0.00 0.00 0.02 89 1008.1
20260906083204 65 183 10.4 22.6 0.00 0.00 0.02 89 1007.8
20260906082703 65 172 7.8 18.2 0.00 0.00 0.02 90 1007.8
20260906082204 65 170 9.6 20.9 0.00 0.00 0.02 90 1007.6
20260906081704 65 187 8.7 28.7 0.00 0.00 0.02 90 1007.7
20260906081204 65 178 8.7 22.6 0.00 0.00 0.02 90 1007.7
20260906080703 64 198 11.3 15.6 0.00 0.00 0.02 90 1007.9
20260906080204 64 181 10.4 22.6 0.00 0.00 0.02 91 1008.0
20260906075704 64 191 10.4 22.6 0.00 0.00 0.02 91 1008.0
20260906075204 64 184 12.2 20.9 0.00 0.00 0.02 91 1008.0
20260906074704 64 184 11.3 20.0 0.00 0.00 0.02 91 1008.2
20260906074204 64 191 7.0 18.2 0.00 0.00 0.02 91 1008.3
20260906073203 64 163 10.4 20.0 0.00 0.00 0.02 92 1008.5
20260906072704 64 178 11.3 18.2 0.00 0.00 0.02 92 1008.6
20260906072203 64 180 10.4 17.4 0.00 0.00 0.02 92 1008.7
20260906071703 64 178 10.4 19.1 0.00 0.00 0.02 92 1008.8
20260906071204 63 188 10.4 22.6 0.00 0.00 0.02 92 1008.8
20260906070704 63 179 7.8 15.6 0.00 0.00 0.02 93 1008.9
20260906070203 63 192 10.4 17.4 0.00 0.00 0.02 93 1008.9
20260906065704 63 187 9.6 20.0 0.00 0.00 0.02 93 1009.1
20260906065203 63 203 9.6 17.4 0.00 0.00 0.02 93 1009.2
20260906064704 63 183 8.7 20.9 0.00 0.00 0.02 93 1009.3
20260906064203 63 206 7.8 15.6 0.00 0.00 0.02 93 1009.4
20260906063703 63 203 8.7 15.6 0.00 0.00 0.02 94 1009.4
20260906063203 63 321 11.3 19.1 0.00 0.00 0.02 94 1009.6
20260906062704 63 184 9.6 22.6 0.00 0.00 0.02 94 1009.6
20260906062204 63 191 8.7 20.0 0.00 0.00 0.02 94 1009.7
20260906061704 63 181 8.7 15.6 0.00 0.00 0.02 94 1009.7
20260906060716 64 178 7.8 13.0 0.00 0.00 0.02 93 1009.9
20260906055704 64 210 8.7 19.1 0.00 0.00 0.02 93 1009.9
20260906055204 64 205 10.4 18.2 0.00 0.00 0.02 93 1010.0
20260906054704 64 202 11.3 20.9 0.00 0.00 0.02 92 1010.0
20260906054204 64 195 11.3 22.6 0.00 0.00 0.02 92 1010.2
20260906053703 64 216 10.4 17.4 0.00 0.00 0.02 92 1010.0
20260906051204 64 184 9.6 17.4 0.00 0.00 0.02 92 1010.4
20260906050704 64 199 8.7 13.0 0.00 0.01 0.02 92 1010.5
20260906050204 64 185 9.6 19.1 0.00 0.01 0.02 92 1010.6
20260906045704 64 207 7.0 14.8 0.00 0.01 0.02 92 1010.7
20260906045204 64 201 10.4 17.4 0.00 0.01 0.02 92 1010.7
20260906044704 64 176 6.1 15.6 0.00 0.01 0.02 92 1010.9
20260906044204 65 197 7.8 12.2 0.00 0.01 0.02 92 1010.9
20260906043703 65 167 6.1 17.4 0.00 0.01 0.02 92 1011.1
20260906043204 65 188 8.7 17.4 0.00 0.01 0.02 92 1011.2
20260906042704 64 184 8.7 17.4 0.00 0.01 0.02 92 1011.2
20260906042205 65 186 4.3 10.4 0.00 0.01 0.02 92 1011.3
20260906041704 65 173 5.2 15.6 0.00 0.01 0.02 92 1011.5
20260906041204 64 165 8.7 19.1 0.00 0.01 0.02 92 1011.4
20260906040703 64 183 7.8 17.4 0.00 0.01 0.02 93 1011.5
20260906040204 64 171 7.8 15.6 0.00 0.01 0.02 93 1011.5
20260906035704 64 147 8.7 17.4 0.00 0.01 0.02 93 1011.5
20260906035204 64 165 6.1 18.2 0.00 0.01 0.02 93 1011.7
20260906034704 64 162 11.3 18.2 0.00 0.01 0.02 93 1011.6
20260906034203 64 187 10.4 19.1 0.00 0.01 0.02 93 1011.8
20260906033703 64 164 8.7 14.8 0.00 0.01 0.02 93 1011.9
20260906033204 64 195 9.6 19.1 0.00 0.01 0.02 93 1011.8
20260906032203 64 175 9.6 22.6 0.00 0.01 0.02 93 1011.9
20260906031704 64 193 8.7 17.4 0.00 0.02 0.02 93 1011.9
20260906031204 64 197 8.7 17.4 0.00 0.02 0.02 93 1011.9
20260906030705 64 183 10.4 18.2 0.00 0.02 0.02 93 1011.9
20260906030204 64 197 12.2 22.6 0.00 0.02 0.02 93 1011.8
20260906025703 63 182 8.7 22.6 0.00 0.02 0.02 93 1012.0
20260906024704 63 188 14.8 22.6 0.00 0.02 0.02 93 1012.0
20260906024203 63 192 10.4 18.2 0.00 0.02 0.02 93 1012.2
20260906023204 63 177 11.3 20.0 0.00 0.02 0.02 93 1012.5
20260906022204 63 175 8.7 17.4 0.00 0.02 0.02 93 1012.7
20260906021704 63 195 10.4 18.2 0.00 0.02 0.02 93 1012.8
20260906020704 63 213 10.4 18.2 0.00 0.02 0.02 93 1012.9
20260906015703 63 183 8.7 17.4 0.00 0.02 0.02 93 1013.1
20260906015204 63 175 7.0 19.1 0.00 0.02 0.02 93 1013.1
20260906014203 63 176 8.7 17.4 0.00 0.02 0.02 93 1013.3
20260906013704 63 199 8.7 17.4 0.00 0.02 0.02 93 1013.5
20260906013203 63 167 8.7 17.4 0.00 0.02 0.02 93 1013.4
20260906012704 63 186 8.7 19.1 0.00 0.02 0.02 93 1013.6
20260906012204 63 172 6.1 17.4 0.00 0.02 0.02 93 1013.7
20260906011704 63 199 6.1 20.9 0.00 0.02 0.02 93 1013.8
20260906011203 63 190 9.6 15.6 0.00 0.02 0.02 93 1013.9
20260906010703 63 200 8.7 17.4 0.00 0.02 0.02 93 1014.0
20260906010205 63 203 8.7 18.2 0.00 0.02 0.02 93 1014.1
20260906005704 63 208 7.8 13.0 0.00 0.02 0.02 93 1014.1
20260906005204 63 197 8.7 17.4 0.00 0.02 0.02 93 1014.1
20260906004703 63 196 8.7 17.4 0.00 0.02 0.02 94 1014.2
20260906004203 63 205 7.8 14.8 0.00 0.02 0.02 94 1014.1
20260906003703 63 209 9.6 13.0 0.00 0.02 0.02 94 1014.2
20260906003203 63 192 11.3 15.6 0.00 0.02 0.02 93 1014.3
20260906002704 63 206 7.8 15.6 0.00 0.02 0.02 93 1014.2
20260906002204 62 204 10.4 15.6 0.00 0.02 0.02 93 1014.3
20260906001704 62 211 10.4 17.4 0.00 0.02 0.02 94 1014.2
20260906001204 62 214 9.6 17.4 0.00 0.02 0.02 94 1014.4
20260906000704 62 197 11.3 17.4 0.00 0.02 0.02 94 1014.3
20260906000204 62 207 7.0 17.4 0.00 0.02 0.02 94 1014.4
20260905235704 62 209 7.8 12.2 0.00 0.02 0.02 94 1014.4
20260905235204 62 199 6.1 12.2 0.00 0.02 0.02 94 1014.5
20260905234704 62 202 8.7 14.8 0.00 0.02 0.02 94 1014.5
20260905234203 61 278 5.2 13.0 0.00 0.02 0.02 94 1014.5
20260905233704 61 187 5.2 13.9 0.00 0.02 0.02 94 1014.6
20260905233204 61 182 7.8 13.0 0.00 0.02 0.02 94 1014.6
20260905232704 61 174 5.2 11.3 0.00 0.02 0.02 94 1014.7
20260905232204 61 174 7.0 12.2 0.00 0.02 0.02 94 1014.7
20260905230704 60 172 9.6 13.9 0.00 0.02 0.02 93 1014.9
20260905223704 59 164 7.8 14.8 0.00 0.02 0.02 93 1015.3
20260905223203 59 159 9.6 13.9 0.00 0.02 0.02 93 1015.3
20260905222704 59 357 11.3 14.8 0.00 0.02 0.02 92 1015.3
20260905222204 59 147 5.2 11.3 0.00 0.02 0.02 92 1015.3
20260905221704 59 205 4.3 12.2 0.00 0.02 0.02 92 1015.5
20260905221204 59 179 6.1 10.4 0.00 0.02 0.02 92 1015.5
20260905220704 59 179 2.6 13.9 0.00 0.02 0.02 92 1015.8
20260905215704 59 160 6.1 15.6 0.00 0.02 0.02 91 1015.7
20260905215203 59 174 4.3 13.0 0.00 0.02 0.02 91 1015.8
20260905214703 59 60 5.2 15.6 0.00 0.02 0.02 91 1015.8
20260905214204 59 152 5.2 12.2 0.00 0.02 0.02 91 1015.8
20260905213705 59 158 4.3 8.7 0.00 0.02 0.02 91 1016.0
20260905213204 59 172 5.2 11.3 0.00 0.02 0.02 91 1016.0
20260905212204 59 176 12.2 18.2 0.00 0.02 0.02 91 1016.0
20260905211704 59 173 9.6 14.8 0.00 0.02 0.02 91 1016.1
20260905211204 59 157 8.7 18.2 0.00 0.02 0.02 91 1016.1
20260905210704 59 176 6.1 11.3 0.00 0.02 0.02 91 1016.5
20260905210204 58 178 7.8 12.2 0.00 0.02 0.02 91 1016.5
20260905205704 58 160 8.7 14.8 0.00 0.02 0.02 91 1016.6
20260905205204 58 165 7.8 13.9 0.00 0.02 0.02 91 1016.5
20260905204703 58 168 8.7 13.9 0.00 0.02 0.02 90 1016.7
20260905204203 58 157 7.8 17.4 0.00 0.02 0.02 90 1016.6
20260905203704 58 186 7.8 15.6 0.00 0.02 0.02 90 1016.8
20260905203204 59 156 10.4 17.4 0.00 0.02 0.02 89 1016.8
20260905202704 59 169 7.8 15.6 0.00 0.02 0.02 89 1017.0
20260905202205 59 177 9.6 14.8 0.00 0.02 0.02 88 1017.1
20260905201204 59 154 9.6 18.2 0.00 0.02 0.02 88 1017.0
20260905200704 59 169 7.8 19.1 0.00 0.02 0.02 88 1017.0
20260905200204 59 169 7.0 13.9 0.00 0.02 0.02 87 1017.0
20260905195704 59 166 7.8 15.6 0.00 0.02 0.02 87 1017.0
20260905195203 59 178 8.7 17.4 0.00 0.02 0.02 86 1017.1
20260905194704 60 180 7.0 17.4 0.00 0.02 0.02 86 1017.1
20260905194203 60 176 9.6 19.1 0.00 0.02 0.02 85 1017.1
20260905193705 60 165 7.8 14.8 0.00 0.02 0.02 84 1017.2
20260905193203 60 176 7.8 18.2 0.00 0.02 0.02 84 1017.2
20260905192203 60 175 6.1 13.9 0.00 0.02 0.02 83 1017.2
20260905191704 60 183 8.7 15.6 0.00 0.02 0.02 83 1017.2
20260905190704 60 176 7.8 17.4 0.00 0.02 0.02 81 1017.3
20260905190203 60 188 5.2 17.4 0.00 0.02 0.02 81 1017.3
20260905185704 60 184 7.8 13.0 0.00 0.02 0.02 80 1017.3
20260905184704 60 167 5.2 8.7 0.00 0.02 0.02 80 1017.4
20260905184204 60 193 3.5 6.1 0.00 0.02 0.02 79 1017.6
20260905183704 60 134 5.2 10.4 0.00 0.02 0.02 79 1017.7
20260905183204 60 177 4.3 7.8 0.00 0.02 0.02 79 1017.7
20260905182704 60 146 3.5 7.0 0.00 0.02 0.02 79 1017.6
20260905182204 60 174 3.5 10.4 0.00 0.02 0.02 79 1017.7
20260905181203 60 185 5.2 8.7 0.00 0.02 0.02 78 1017.8
20260905180204 60 167 5.2 11.3 0.00 0.02 0.02 78 1017.8
20260905175704 60 181 5.2 11.3 0.00 0.02 0.02 79 1017.9
20260905174704 60 164 6.1 10.4 0.00 0.02 0.02 79 1018.1
20260905174204 61 163 3.5 10.4 0.00 0.02 0.02 79 1018.1
20260905173703 61 176 5.2 7.0 0.00 0.02 0.02 79 1018.2
20260905173204 61 167 4.3 11.3 0.00 0.02 0.02 79 1018.3
20260905172704 61 186 4.3 8.7 0.00 0.02 0.02 80 1018.3
20260905172204 61 179 5.2 10.4 0.00 0.02 0.02 80 1018.4
20260905171703 61 179 5.2 10.4 0.00 0.02 0.02 80 1018.4
20260905171204 61 185 4.3 8.7 0.00 0.02 0.02 80 1018.5
20260905170704 61 187 3.5 7.0 0.00 0.02 0.02 80 1018.5
20260905170204 61 185 4.3 8.7 0.00 0.02 0.02 80 1018.5
20260905165704 61 188 5.2 7.8 0.00 0.02 0.02 80 1018.7
20260905165204 61 174 4.3 8.7 0.00 0.02 0.02 81 1018.8
20260905164703 61 161 6.1 10.4 0.00 0.02 0.02 81 1018.8
20260905163204 61 186 5.2 10.4 0.00 0.02 0.02 80 1019.1
20260905162704 61 187 6.1 12.2 0.00 0.02 0.02 79 1019.1
20260905162203 61 182 4.3 8.7 0.00 0.02 0.02 79 1019.1
20260905161705 61 177 4.3 8.7 0.00 0.02 0.02 79 1019.1
20260905161203 61 186 6.1 10.4 0.00 0.02 0.02 79 1019.2
20260905160704 61 179 6.1 10.4 0.00 0.02 0.02 79 1019.3
20260905160204 61 188 7.0 12.2 0.00 0.02 0.02 78 1019.3
20260905155703 61 206 6.1 10.4 0.00 0.02 0.02 79 1019.4
20260905155204 61 179 6.1 10.4 0.00 0.02 0.02 79 1019.5
20260905154703 61 184 6.1 13.0 0.00 0.02 0.02 79 1019.5
20260905154204 61 193 4.3 8.7 0.00 0.02 0.02 80 1019.5
20260905153703 61 176 5.2 8.7 0.00 0.02 0.02 80 1019.5
20260905153204 61 177 4.3 8.7 0.00 0.02 0.02 81 1019.6
20260905152203 60 170 4.3 10.4 0.00 0.04 0.02 80 1019.7
20260905150704 60 169 2.6 6.1 0.00 0.04 0.02 81 1020.0